DJ3OW-13 Weather Reports


time (UTC)temp
C
wind
direction
speed
KPH
gust
KPH
rain 1hr
cm
rain 24hr
cm
rain mn
cm
humidity
%
barometer
mb
20260507113017 7 73 0.0 3.2 0.00 0.48 0.23 98 1016.6
20260507112016 7 103 0.0 3.2 0.00 0.48 0.23 99 1016.6
20260507111113 7 101 0.0 3.2 0.00 0.48 0.23 99 1016.5
20260507110111 7 42 0.0 3.2 0.00 0.48 0.23 99 1016.5
20260507105110 7 136 1.6 6.4 0.03 0.48 0.23 99 1016.4
20260507104127 7 0.0 3.2 0.03 0.48 0.23 99 1016.3
20260507103105 7 0.0 3.2 0.03 0.51 0.23 99 1016.1
20260507102103 7 68 0.0 3.2 0.03 0.51 0.23 99 1016.2
20260507101102 7 45 0.0 6.4 0.03 0.51 0.23 99 1016.0
20260507100140 7 0.0 3.2 0.03 0.53 0.23 99 1015.9
20260507095058 8 0.0 0.0 0.00 0.51 0.20 99 1015.7
20260507094055 8 0.0 0.0 0.00 0.53 0.20 99 1015.7
20260507093053 8 0.0 3.2 0.00 0.53 0.20 99 1015.5
20260507092051 7 0.0 0.0 0.00 0.53 0.20 99 1015.4
20260507091049 7 0.0 0.0 0.00 0.53 0.20 99 1015.2
20260507090047 7 0.0 3.2 0.00 0.53 0.20 99 1015.1
20260507085045 7 68 0.0 14.5 0.00 0.53 0.20 99 1015.0
20260507084043 8 0.0 3.2 0.00 0.53 0.20 99 1014.8
20260507083041 7 282 0.0 3.2 0.00 0.53 0.20 99 1014.8
20260507082039 7 0.0 3.2 0.00 0.53 0.20 99 1014.7
20260507081037 7 23 0.0 3.2 0.00 0.53 0.20 99 1014.6
20260507080035 7 338 0.0 3.2 0.00 0.53 0.20 99 1014.5
20260507075033 7 0.0 3.2 0.00 0.53 0.20 99 1014.3
20260507074031 7 0.0 3.2 0.00 0.53 0.20 99 1014.2
20260507073029 7 0.0 0.0 0.00 0.53 0.20 99 1013.9
20260507072027 7 0.0 0.0 0.00 0.56 0.20 99 1013.9
20260507071045 7 45 0.0 3.2 0.00 0.56 0.20 99 1013.8
20260507070023 7 338 0.0 3.2 0.00 0.61 0.20 99 1013.8
20260507065021 7 68 0.0 3.2 0.00 0.61 0.20 99 1013.7
20260507064019 7 0.0 3.2 0.00 0.64 0.20 99 1013.5
20260507063037 7 0.0 3.2 0.00 0.66 0.20 99 1013.4
20260507062015 7 0.0 3.2 0.00 0.66 0.20 99 1013.3
20260507061113 7 0.0 0.0 0.00 0.69 0.20 99 1013.1
20260507060131 7 90 0.0 6.4 0.00 0.71 0.20 99 1012.9
20260507055109 7 0.0 0.0 0.00 0.71 0.20 99 1012.8
20260507054107 7 0.0 3.2 0.00 0.76 0.20 99 1012.6
20260507053105 7 0.0 0.0 0.00 0.79 0.20 99 1012.6
20260507052103 7 0.0 3.2 0.03 0.79 0.20 99 1012.4
20260507051101 7 23 0.0 3.2 0.03 0.81 0.20 99 1012.3
20260507050058 7 349 0.0 3.2 0.03 0.81 0.20 99 1012.3
20260507045056 7 0.0 0.0 0.03 0.81 0.20 99 1012.1
20260507044054 7 90 0.0 6.4 0.03 0.86 0.20 99 1012.0
20260507043053 7 331 0.0 6.4 0.03 0.86 0.20 99 1012.0
20260507042051 8 327 0.0 6.4 0.00 0.86 0.18 99 1011.9
20260507041048 8 58 0.0 6.4 0.00 0.86 0.18 99 1011.7
20260507040047 8 0.0 0.0 0.00 0.94 0.18 99 1011.7
20260507035045 8 113 0.0 3.2 0.00 0.97 0.18 99 1011.6
20260507034042 8 252 1.6 6.4 0.00 0.99 0.18 99 1011.5
20260507033040 8 0.0 3.2 0.00 1.02 0.18 99 1011.2
20260507032039 8 287 1.6 3.2 0.00 1.04 0.18 99 1011.3
20260507031036 8 270 0.0 3.2 0.00 1.12 0.18 99 1011.4
20260507030035 8 277 0.0 3.2 0.00 1.19 0.18 99 1011.3
20260507025033 8 284 1.6 6.4 0.00 1.27 0.18 99 1011.1
20260507024031 7 270 1.6 3.2 0.03 1.35 0.18 99 1011.1
20260507023049 8 265 1.6 6.4 0.03 1.42 0.18 99 1011.1
20260507022026 8 282 1.6 3.2 0.03 1.47 0.18 99 1011.0
20260507021025 8 269 1.6 11.3 0.03 1.52 0.18 99 1010.9
20260507020022 8 270 0.0 3.2 0.03 1.55 0.18 99 1010.9
20260507015020 7 278 1.6 3.2 0.03 1.63 0.18 99 1010.7
20260507014018 7 279 3.2 9.7 0.00 1.65 0.15 99 1010.8
20260507013016 7 271 3.2 9.7 0.00 1.68 0.15 99 1010.7
20260507012114 8 303 1.6 6.4 0.00 1.70 0.15 99 1010.6
20260507011113 8 303 1.6 6.4 0.00 1.78 0.15 99 1010.6
20260507010130 8 296 1.6 6.4 0.00 1.80 0.15 99 1010.5
20260507005108 8 295 1.6 9.7 0.03 1.88 0.15 99 1010.5
20260507004106 8 271 3.2 6.4 0.03 1.96 0.15 99 1010.5
20260507003104 8 305 1.6 3.2 0.05 1.98 0.15 99 1010.4
20260507002102 8 257 1.6 14.5 0.05 2.03 0.15 99 1010.3
20260507001100 8 296 1.6 6.4 0.05 2.06 0.15 99 1010.3
20260507000058 8 289 3.2 11.3 0.05 2.13 0.15 99 1010.2
20260506235056 8 286 1.6 6.4 0.03 2.13 0.13 99 1010.3
20260506234054 8 268 4.8 11.3 0.05 2.16 0.13 99 1010.2
20260506233052 8 285 3.2 6.4 0.03 2.18 0.10 99 1010.2
20260506232110 8 269 3.2 11.3 0.03 2.21 0.10 99 1010.2
20260506231048 8 270 3.2 9.7 0.05 2.26 0.10 99 1010.1
20260506230046 8 265 3.2 9.7 0.10 2.29 0.10 99 1010.1
20260506225104 8 264 3.2 6.4 0.10 2.31 0.10 99 1010.0
20260506224042 8 277 1.6 3.2 0.05 2.31 0.05 99 1010.0
20260506223040 8 283 3.2 6.4 0.05 2.34 0.05 99 1009.8
20260506222038 8 252 1.6 6.4 0.05 2.36 0.05 99 1009.8
20260506221056 8 252 1.6 3.2 0.03 2.36 0.03 99 1009.8
20260506220034 8 256 1.6 6.4 0.03 2.34 0.00 99 1009.7
20260506215032 8 252 3.2 9.7 0.03 2.36 2.34 99 1009.8
20260506214050 8 270 1.6 6.4 0.03 2.39 2.34 99 1009.7
20260506213028 8 258 0.0 6.4 0.03 2.44 2.34 99 1009.7
20260506212046 8 0.0 3.2 0.03 2.46 2.34 99 1009.5
20260506211024 8 270 1.6 6.4 0.05 2.46 2.34 99 1009.6
20260506210022 8 0 0.0 3.2 0.03 2.46 2.31 99 1009.6
20260506205020 8 238 1.6 3.2 0.03 2.46 2.31 99 1009.7
20260506204018 8 263 3.2 6.4 0.03 2.46 2.31 99 1009.6
20260506203036 8 0.0 3.2 0.03 2.49 2.31 99 1009.5
20260506202114 8 0.0 3.2 0.05 2.49 2.31 99 1009.5
20260506201112 8 280 1.6 3.2 0.03 2.46 2.29 99 1009.5
20260506200110 8 300 0.0 3.2 0.03 2.49 2.29 99 1009.4
20260506195108 8 212 3.2 6.4 0.03 2.49 2.29 99 1009.3
20260506194106 8 268 3.2 6.4 0.03 2.51 2.29 99 1009.1
20260506193104 9 288 1.6 6.4 0.03 2.59 2.29 99 1009.1
20260506192102 9 297 1.6 3.2 0.00 2.54 2.26 99 1009.0
20260506191100 9 293 1.6 6.4 0.00 2.54 2.26 99 1008.9
20260506190058 9 272 4.8 11.3 0.00 2.54 2.26 99 1008.8
20260506185056 9 267 4.8 9.7 0.00 2.54 2.26 99 1008.7
20260506184054 9 275 3.2 6.4 0.00 2.54 2.26 99 1008.5
20260506183052 9 266 3.2 6.4 0.00 2.54 2.26 99 1008.5
20260506182050 9 264 4.8 9.7 0.00 2.54 2.26 99 1008.3
20260506181108 9 285 3.2 6.4 0.00 2.54 2.26 99 1008.3
20260506180045 10 274 4.8 11.3 0.00 2.54 2.26 99 1008.3
20260506175124 10 240 4.8 11.3 0.00 2.54 2.26 99 1008.2
20260506174102 10 267 4.8 12.9 0.00 2.54 2.26 99 1008.1
20260506173040 10 249 3.2 11.3 0.00 2.54 2.26 99 1008.2
20260506172038 10 262 3.2 12.9 0.00 2.54 2.26 98 1008.1
20260506171035 10 257 3.2 6.4 0.00 2.54 2.26 98 1008.0
20260506170033 10 258 3.2 11.3 0.00 2.54 2.26 98 1008.0
20260506165032 10 263 4.8 11.3 0.00 2.54 2.26 98 1008.0
20260506164110 10 261 3.2 6.4 0.00 2.54 2.26 98 1008.0
20260506163027 10 259 1.6 6.4 0.00 2.54 2.26 98 1008.0
20260506162025 10 244 3.2 11.3 0.00 2.54 2.26 98 1007.8
20260506161043 10 251 3.2 9.7 0.00 2.54 2.26 99 1007.9
20260506160021 10 245 3.2 9.7 0.00 2.54 2.26 98 1007.8
20260506155019 10 251 4.8 11.3 0.00 2.54 2.26 99 1008.0
20260506154017 10 257 1.6 6.4 0.00 2.54 2.26 99 1007.9
20260506153015 10 265 1.6 6.4 0.00 2.54 2.26 99 1007.9
20260506152114 10 256 4.8 9.7 0.00 2.54 2.26 99 1007.9
20260506151112 10 256 4.8 9.7 0.00 2.54 2.26 99 1007.8
20260506150130 10 260 3.2 9.7 0.00 2.54 2.26 99 1007.7
20260506145107 10 251 4.8 11.3 0.00 2.54 2.26 99 1007.6
20260506144106 10 259 3.2 11.3 0.03 2.54 2.26 99 1007.8
20260506143104 10 253 3.2 11.3 0.03 2.54 2.26 99 1007.9
20260506142101 10 241 3.2 6.4 0.03 2.54 2.26 99 1007.9
20260506141119 10 242 3.2 6.4 0.03 2.54 2.26 99 1007.8
20260506140057 10 240 3.2 6.4 0.05 2.54 2.26 99 1007.9
20260506135115 10 253 4.8 6.4 0.10 2.54 2.26 99 1007.8
20260506134053 10 260 3.2 9.7 0.10 2.51 2.21 99 1007.8
20260506133112 10 259 3.2 6.4 0.13 2.51 2.21 99 1007.8
20260506132049 10 257 1.6 6.4 0.13 2.51 2.21 99 1007.8
20260506131047 11 248 0.0 3.2 0.13 2.51 2.21 99 1007.8
20260506130045 10 0.0 3.2 0.10 2.49 2.18 99 1007.8
20260506125043 10 0.0 3.2 0.05 2.46 2.16 99 1007.8
20260506124041 10 0.0 3.2 0.03 2.44 2.13 99 1007.8
20260506123039 10 0.0 0.0 0.00 2.39 2.11 99 1007.7
20260506122037 10 270 0.0 3.2 0.00 2.39 2.11 99 1007.6
20260506121035 10 270 0.0 3.2 0.00 2.39 2.11 99 1007.5
20260506120033 10 0.0 0.0 0.00 2.39 2.11 99 1007.5
20260506115031 10 0.0 0.0 0.00 2.39 2.11 99 1007.5
20260506114029 10 0.0 3.2 0.00 2.39 2.11 99 1007.5